TimeCDT,TemperatureF,Dew PointF,Humidity,Sea Level PressureIn,VisibilityMPH,Wind Direction,Wind SpeedMPH,Gust SpeedMPH,PrecipitationIn,Events,Conditions,WindDirDegrees,DateUTC
12:15 AM,84.2,68.0,58,29.92,10.0,South,10.4,-,N/A,,Clear,180,2013-06-27 05:15:00
12:35 AM,84.2,69.8,62,29.92,10.0,South,12.7,-,N/A,,Clear,180,2013-06-27 05:35:00
12:55 AM,84.2,69.8,62,29.92,10.0,South,12.7,-,N/A,,Clear,190,2013-06-27 05:55:00
1:15 AM,82.4,69.8,66,29.92,10.0,South,11.5,-,N/A,,Clear,180,2013-06-27 06:15:00
1:35 AM,82.4,69.8,66,29.92,10.0,South,9.2,-,N/A,,Clear,190,2013-06-27 06:35:00
1:55 AM,80.6,69.8,70,29.92,10.0,South,10.4,-,N/A,,Clear,190,2013-06-27 06:55:00
2:15 AM,80.6,69.8,70,29.92,10.0,South,9.2,-,N/A,,Clear,190,2013-06-27 07:15:00
2:35 AM,78.8,69.8,74,29.92,10.0,SSW,9.2,-,N/A,,Clear,200,2013-06-27 07:35:00
2:55 AM,78.8,69.8,74,29.92,10.0,South,9.2,-,N/A,,Clear,190,2013-06-27 07:55:00
3:15 AM,78.8,69.8,74,29.92,10.0,SSW,9.2,-,N/A,,Clear,200,2013-06-27 08:15:00
3:35 AM,77.0,69.8,78,29.91,10.0,SSW,10.4,-,N/A,,Clear,200,2013-06-27 08:35:00
3:55 AM,75.2,69.8,83,29.91,10.0,SSW,8.1,-,N/A,,Clear,200,2013-06-27 08:55:00
4:15 AM,77.0,69.8,78,29.92,10.0,SSW,6.9,-,N/A,,Clear,200,2013-06-27 09:15:00
4:35 AM,75.2,69.8,83,29.92,10.0,SSW,8.1,-,N/A,,Clear,210,2013-06-27 09:35:00
4:55 AM,73.4,68.0,83,29.92,10.0,SSW,6.9,-,N/A,,Clear,200,2013-06-27 09:55:00
5:15 AM,73.4,68.0,83,29.92,10.0,SSW,5.8,-,N/A,,Clear,210,2013-06-27 10:15:00
5:35 AM,73.4,68.0,83,29.92,10.0,South,6.9,-,N/A,,Clear,190,2013-06-27 10:35:00
5:55 AM,71.6,66.2,83,29.92,10.0,South,5.8,-,N/A,,Clear,170,2013-06-27 10:55:00
6:15 AM,71.6,66.2,83,29.92,8.0,South,4.6,-,N/A,,Clear,180,2013-06-27 11:15:00
6:35 AM,71.6,66.2,83,29.92,7.0,South,5.8,-,N/A,,Clear,190,2013-06-27 11:35:00
6:55 AM,71.6,66.2,83,29.92,8.0,Calm,Calm,-,N/A,,Clear,0,2013-06-27 11:55:00
7:15 AM,73.4,68.0,83,29.93,9.0,SW,5.8,-,N/A,,Clear,220,2013-06-27 12:15:00
7:35 AM,73.4,69.8,88,29.93,10.0,SSW,4.6,-,N/A,,Clear,200,2013-06-27 12:35:00
7:55 AM,75.2,69.8,83,29.94,9.0,SSW,5.8,-,N/A,,Clear,200,2013-06-27 12:55:00
8:15 AM,78.8,69.8,74,29.93,10.0,SSW,8.1,-,N/A,,Clear,200,2013-06-27 13:15:00
8:35 AM,80.6,69.8,70,29.94,10.0,SSW,9.2,-,N/A,,Clear,200,2013-06-27 13:35:00
8:55 AM,82.4,71.6,70,29.94,10.0,SSW,9.2,-,N/A,,Clear,200,2013-06-27 13:55:00
9:15 AM,84.2,71.6,66,29.94,10.0,SW,11.5,-,N/A,,Clear,220,2013-06-27 14:15:00
9:35 AM,87.8,71.6,58,29.94,10.0,SW,11.5,17.3,N/A,,Clear,220,2013-06-27 14:35:00
9:55 AM,89.6,69.8,52,29.94,10.0,SW,11.5,-,N/A,,Clear,220,2013-06-27 14:55:00
10:15 AM,91.4,69.8,49,29.94,10.0,SW,6.9,-,N/A,,Clear,220,2013-06-27 15:15:00
10:35 AM,93.2,69.8,46,29.93,10.0,South,8.1,-,N/A,,Clear,190,2013-06-27 15:35:00
10:55 AM,96.8,69.8,41,29.93,10.0,SW,10.4,-,N/A,,Clear,220,2013-06-27 15:55:00
11:15 AM,95.0,68.0,41,29.93,10.0,SSW,8.1,-,N/A,,Clear,200,2013-06-27 16:15:00
11:35 AM,96.8,69.8,41,29.93,10.0,South,9.2,-,N/A,,Clear,190,2013-06-27 16:35:00
11:55 AM,98.6,69.8,39,29.92,10.0,SW,9.2,-,N/A,,Clear,230,2013-06-27 16:55:00
12:15 PM,102.2,66.2,31,29.92,10.0,SSW,8.1,16.1,N/A,,Clear,210,2013-06-27 17:15:00
12:35 PM,100.4,66.2,33,29.92,10.0,SSW,8.1,-,N/A,,Clear,200,2013-06-27 17:35:00
12:55 PM,102.2,64.4,29,29.91,10.0,WSW,12.7,16.1,N/A,,Clear,240,2013-06-27 17:55:00
1:15 PM,102.2,64.4,29,29.91,10.0,SW,8.1,20.7,N/A,,Clear,230,2013-06-27 18:15:00
1:35 PM,104.0,64.4,27,29.90,10.0,South,13.8,-,N/A,,Clear,190,2013-06-27 18:35:00
1:55 PM,104.0,64.4,27,29.90,10.0,SSW,10.4,19.6,N/A,,Clear,200,2013-06-27 18:55:00
2:15 PM,105.8,64.4,26,29.89,10.0,SSW,13.8,20.7,N/A,,Clear,210,2013-06-27 19:15:00
2:35 PM,105.8,62.6,24,29.88,10.0,South,12.7,18.4,N/A,,Clear,190,2013-06-27 19:35:00
2:55 PM,107.6,64.4,25,29.87,10.0,South,13.8,20.7,N/A,,Clear,190,2013-06-27 19:55:00
3:15 PM,107.6,64.4,25,29.86,10.0,South,16.1,20.7,N/A,,Clear,180,2013-06-27 20:15:00
3:35 PM,107.6,66.2,26,29.84,10.0,South,17.3,20.7,N/A,,Clear,170,2013-06-27 20:35:00
3:55 PM,107.6,64.4,25,29.81,10.0,SW,18.4,-,N/A,Thunderstorm,Thunderstorm,220,2013-06-27 20:55:00
4:15 PM,105.8,64.4,26,29.78,10.0,SSW,19.6,23.0,N/A,Thunderstorm,Clear,200,2013-06-27 21:15:00
4:35 PM,102.2,64.4,29,29.77,10.0,SSW,19.6,24.2,N/A,Thunderstorm,Thunderstorm,210,2013-06-27 21:35:00
4:55 PM,84.2,62.6,48,29.92,9.0,NNW,28.8,42.6,0.02,Thunderstorm,Thunderstorm,330,2013-06-27 21:55:00
5:15 PM,75.2,64.4,69,29.91,10.0,ESE,13.8,25.3,0.06,Thunderstorm,Thunderstorm,110,2013-06-27 22:15:00
5:35 PM,75.2,66.2,73,29.89,10.0,SSE,12.7,21.9,0.06,Thunderstorm,Thunderstorm,150,2013-06-27 22:35:00
5:55 PM,73.4,66.2,78,29.93,10.0,East,12.7,36.8,0.06,Thunderstorm,Thunderstorm,90,2013-06-27 22:55:00
6:15 PM,73.4,66.2,78,29.92,10.0,East,5.8,-,0.03,Thunderstorm,Mostly Cloudy,90,2013-06-27 23:15:00
6:35 PM,73.4,68.0,83,29.91,10.0,SW,8.1,-,0.03,Thunderstorm,Thunderstorm,220,2013-06-27 23:35:00
6:55 PM,73.4,68.0,83,29.86,10.0,WSW,8.1,-,0.04,,Partly Cloudy,240,2013-06-27 23:55:00
7:15 PM,73.4,68.0,83,29.85,10.0,Calm,Calm,-,N/A,,Clear,0,2013-06-28 00:15:00
7:35 PM,73.4,68.0,83,29.89,10.0,ESE,5.8,-,N/A,,Clear,110,2013-06-28 00:35:00
7:55 PM,73.4,68.0,83,29.93,10.0,SE,8.1,-,N/A,,Clear,140,2013-06-28 00:55:00
8:15 PM,73.4,68.0,83,29.98,10.0,NE,16.1,19.6,N/A,,Clear,50,2013-06-28 01:15:00
8:35 PM,73.4,68.0,83,29.97,10.0,NE,13.8,-,N/A,,Clear,40,2013-06-28 01:35:00
8:55 PM,73.4,68.0,83,29.97,10.0,ENE,6.9,-,N/A,,Clear,70,2013-06-28 01:55:00
9:15 PM,73.4,68.0,83,29.97,10.0,NE,5.8,-,N/A,,Clear,40,2013-06-28 02:15:00
9:35 PM,73.4,66.2,78,29.99,10.0,NNE,5.8,-,N/A,,Clear,30,2013-06-28 02:35:00
9:55 PM,73.4,66.2,78,30.02,10.0,NE,6.9,-,N/A,,Clear,40,2013-06-28 02:55:00
10:15 PM,71.6,66.2,83,30.04,10.0,NE,9.2,-,N/A,,Clear,40,2013-06-28 03:15:00
10:35 PM,71.6,66.2,83,30.06,10.0,NE,10.4,-,N/A,,Clear,40,2013-06-28 03:35:00
10:55 PM,71.6,66.2,83,30.07,10.0,NNE,8.1,-,N/A,,Clear,30,2013-06-28 03:55:00
11:15 PM,71.6,66.2,83,30.07,10.0,NNE,6.9,-,N/A,,Clear,20,2013-06-28 04:15:00
11:35 PM,71.6,66.2,83,30.07,10.0,NNE,8.1,-,N/A,,Clear,30,2013-06-28 04:35:00
11:55 PM,71.6,68.0,88,30.07,10.0,North,6.9,-,N/A,,Clear,360,2013-06-28 04:55:00